sat.trackr.live / text

‹ back to catalog

STARLINK-4041

NORAD 52695 · 2022-053AR

PAYLOAD ACTIVE UNKNOWN

§ Identity

Operator
Country
US
Launch date
2022-05-18
Launch site
AFETR
Launch vehicle
Mass (kg)
RCS (m²)

Purposes: comms

External: N2YO · Heavens-Above · Gunter

§ Orbital elements

Epoch: 2026-09-19T18:33:27.329472Z

Period
95.44 min
Inclination
53.1629°
Eccentricity
0.0001251
Mean motion
15.08836908 rev/d
Perigee alt
538.9 km
Apogee alt
540.6 km
Semi-major
6,917.9 km
B*
2.5130e-5
RAAN
356.9852°
Arg perigee
85.7418°
Mean anomaly
274.3716°
Rev number
24,039

§ Raw data

STARLINK-40411 52695U 22053AR  26262.77323298  .00000112  00000+0  25130-4 0  99962 52695  53.1629 356.9852 0001251  85.7418 274.3716 15.08836908240391

JSON: /api/v1/satellites/52695 · /tle

For live sub-satellite position, see the globe view (requires WebGL).

§ Visibility from observer

Set your observer location to see the next 7 days of passes ≥ 10°. The values pass through the URL so the page stays shareable.

No JS? Fill the form by hand. The geolocation button needs JavaScript.